"Pseudo-MPEC" for C0YVEL2

Created 2019 Sep 21 11:07:03 UT using Find_Orb

Click here for an explanation of pseudo-MPECs

 
 Astrometry: 
     C0YVEL2  C2019 09 07.28345 23 42 02.14 +16 28 10.6    ~977b 21.6 GVNEOCPG96
     C0YVEL2  C2019 09 07.29193 23 42 01.65 +16 28 02.3    ~977b 21.4 GVNEOCPG96
     C0YVEL2  C2019 09 07.29616 23 42 01.39 +16 27 58.4    ~977b 21.7 GVNEOCPG96
     C0YVEL2  C2019 09 07.46766 23 41 51.79 +16 25 09.7    ~97Bq       VNEOCPV06
     C0YVEL2  C2019 09 07.47082 23 41 51.60 +16 25 04.8    ~97Bq 22.2 GVNEOCPV06
     C0YVEL2  C2019 09 07.47398 23 41 51.44 +16 25 01.6    ~97Bq 21.9 GVNEOCPV06
     C0YVEL2  C2019 09 07.47715 23 41 51.28 +16 24 58.6    ~97Bq 21.9 GVNEOCPV06

Station data:
(G96) Mt. Lemmon Survey  (N32.442754 W110.788720)  US/Arizona.  Observers T.
   A. Pruyne, B. M. Africano, E. J. Christensen, G. A. Farneth, D. C. Fuls,
   A. R. Gibbs, A. D. Grauer, H. Groeller, J. A. Johnson, R. A. Kowalski, S.
   M. Larson, G. J. Leonard, D. Rankin, R. L. Seaman, F. C. Shelly. 1.5-m
   reflector + 10K CCD.
(V06) Catalina Sky Survey-Kuiper  (N32.416847 W110.732550)  US/Arizona.
   Observers T. A. Pruyne, B. M. Africano, E. J. Christensen, G. A. Farneth,
   D. C. Fuls, A. R. Gibbs, A. D. Grauer, H. Groeller, J. A. Johnson, R. A.
   Kowalski, S. M. Larson, G. J. Leonard, D. Rankin, R. L. Seaman, F. C.
   Shelly. 1.55-m reflector + CCD.

Orbital elements:  C0YVEL2
   Perihelion 2020 Aug 21.336705 +/- 299 TT =  8:04:51 (JD 2459082.836705)
Epoch 2019 Sep  7.0 TT = JDT 2458733.5   Earth MOID: 0.6710   Ma: 0.0671
M 218.12406766 +/- 100              (J2000 ecliptic)          AutoNEOCP
n   0.40612947 +/- 0.177            Peri.  304.28636 +/- 60
a   1.80589727 +/- 0.524            Node   195.77625 +/- 18
e   0.1034453 +/- 0.148             Incl.   21.19868 +/- 17
P   2.43/886.40d           H 19.9   G  0.15   U 11.6  SR
q 1.61908557 +/- 0.411    Q 1.99270898 +/- 0.815
From 7 observations 2019 Sept. 7 (4.6 hr); mean residual 0".42
Residuals in arcseconds: 
190907 G96  .24+  .10-    190907 V06  .00   1.3+    190907 V06  .22+  .32-    
190907 G96  .04+  .09-    190907 V06  .21-  .45-    
190907 G96  .28-  .16+    190907 V06  .00   .49-    

Ephemerides (geocentric):
Date (UTC) HH   RA              Dec         delta   r     elong  mag " sig PA
---- -- -- --  -------------   -----------  ------ ------ -----  --- ---- ---
2019 09 21 11  23 28 38.778   +11 52 44.30  .95917 1.9486 166.0 21.8 305' 115
2019 09 21 12  23 28 36.398   +11 51 49.48  .95913 1.9486 166.0 21.8 311' 115
2019 09 21 13  23 28 34.018   +11 50 54.63  .95909 1.9486 166.0 21.8 317' 115
2019 09 21 14  23 28 31.640   +11 49 59.75  .95905 1.9485 166.0 21.8 324' 116
2019 09 21 15  23 28 29.262   +11 49 04.85  .95901 1.9485 166.0 21.8 331' 116
2019 09 21 16  23 28 26.884   +11 48 09.92  .95898 1.9485 166.0 21.8 338' 116
2019 09 21 17  23 28 24.508   +11 47 14.96  .95894 1.9484 166.0 21.8 345' 116
2019 09 21 18  23 28 22.132   +11 46 19.98  .95890 1.9484 166.1 21.8 352' 116
2019 09 21 19  23 28 19.757   +11 45 24.97  .95886 1.9484 166.1 21.8 360' 116
2019 09 21 20  23 28 17.383   +11 44 29.94  .95883 1.9483 166.1 21.8 367' 116
2019 09 21 21  23 28 15.009   +11 43 34.88  .95879 1.9483 166.1 21.8 375' 116
2019 09 21 22  23 28 12.637   +11 42 39.79  .95876 1.9483 166.1 21.8 383' 116
2019 09 21 23  23 28 10.265   +11 41 44.68  .95872 1.9482 166.1 21.8 392' 116
2019 09 22 00  23 28 07.893   +11 40 49.54  .95869 1.9482 166.1 21.8 400' 116
2019 09 22 01  23 28 05.523   +11 39 54.38  .95865 1.9482 166.1 21.8 409' 117
2019 09 22 02  23 28 03.153   +11 38 59.19  .95862 1.9481 166.1 21.8 418' 117
2019 09 22 03  23 28 00.785   +11 38 03.98  .95858 1.9481 166.1 21.8 427' 117
2019 09 22 04  23 27 58.417   +11 37 08.74  .95855 1.9481 166.1 21.8 436' 117
2019 09 22 05  23 27 56.049   +11 36 13.48  .95852 1.9480 166.1 21.8 446' 117
2019 09 22 06  23 27 53.683   +11 35 18.19  .95849 1.9480 166.1 21.8 456' 117
2019 09 22 07  23 27 51.317   +11 34 22.88  .95846 1.9480 166.1 21.8 466' 118
2019 09 22 08  23 27 48.953   +11 33 27.54  .95842 1.9479 166.1 21.8 477' 118
2019 09 22 09  23 27 46.589   +11 32 32.18  .95839 1.9479 166.1 21.8 487' 118
2019 09 22 10  23 27 44.226   +11 31 36.79  .95836 1.9479 166.1 21.8 498' 118
2019 09 22 11  23 27 41.864   +11 30 41.38  .95833 1.9478 166.1 21.8 509' 118
2019 09 22 12  23 27 39.502   +11 29 45.94  .95830 1.9478 166.1 21.8 521' 119
2019 09 22 13  23 27 37.142   +11 28 50.48  .95828 1.9478 166.1 21.8 532' 119
2019 09 22 14  23 27 34.782   +11 27 55.00  .95825 1.9478 166.2 21.8 544' 119
2019 09 22 15  23 27 32.424   +11 26 59.49  .95822 1.9477 166.2 21.8 556' 119
2019 09 22 16  23 27 30.066   +11 26 03.96  .95819 1.9477 166.2 21.8 569' 120
2019 09 22 17  23 27 27.709   +11 25 08.40  .95817 1.9477 166.2 21.8 582' 120
2019 09 22 18  23 27 25.353   +11 24 12.82  .95814 1.9476 166.2 21.8 595' 120
2019 09 22 19  23 27 22.998   +11 23 17.22  .95811 1.9476 166.2 21.8 608' 121
2019 09 22 20  23 27 20.644   +11 22 21.59  .95809 1.9476 166.2 21.8 621' 121
2019 09 22 21  23 27 18.291   +11 21 25.94  .95806 1.9475 166.2 21.8 635' 122
2019 09 22 22  23 27 15.938   +11 20 30.27  .95804 1.9475 166.2 21.8 649' 122
2019 09 22 23  23 27 13.587   +11 19 34.57  .95801 1.9475 166.2 21.8 664' 123
2019 09 23 00  23 27 11.237   +11 18 38.85  .95799 1.9474 166.2 21.8 679' 123
2019 09 23 01  23 27 08.887   +11 17 43.11  .95797 1.9474 166.2 21.8 693' 124
2019 09 23 02  23 27 06.539   +11 16 47.34  .95794 1.9473 166.2 21.8 709' 124
2019 09 23 03  23 27 04.192   +11 15 51.56  .95792 1.9473 166.2 21.8 724' 125
2019 09 23 04  23 27 01.845   +11 14 55.74  .95790 1.9473 166.2 21.8 740' 125
2019 09 23 05  23 26 59.500   +11 13 59.91  .95788 1.9472 166.2 21.8 757' 126
2019 09 23 06  23 26 57.155   +11 13 04.06  .95786 1.9472 166.2 21.8 773' 127
2019 09 23 07  23 26 54.812   +11 12 08.18  .95784 1.9472 166.2 21.8 790' 127
2019 09 23 08  23 26 52.469   +11 11 12.28  .95782 1.9471 166.2 21.8 807' 128
2019 09 23 09  23 26 50.128   +11 10 16.35  .95780 1.9471 166.2 21.8 825' 129
2019 09 23 10  23 26 47.787   +11 09 20.41  .95778 1.9471 166.2 21.8 842' 129